Temperature
18 18 17 17 16 16 15 15 15 15 15 15 15 14 14 14 14 13 13 13 13 13 13 13 13 13 13 13 14 14 14 14 13 13 12 12 12 12 12 12 12 12 12
19 18 17 17 16 16 15 15 15 15 15 14 14 14 13 13 13 13 13 13 13 13 12 12 12 13 13 13 13 14 13 13 12 12 12 12 12 11 11 12 11 11 11
18 18 17 17 16 15 15 15 15 15 14 14 14 13 13 13 12 12 12 12 12 12 12 12 12 12 13 13 13 13 13 12 12 11 11 11 11 11 11 11 11 11 11
18 18 17 16 16 15 15 15 15 14 14 13 13 13 12 12 12 12 12 12 12 11 11 11 12 12 12 13 13 13 13 12 11 11 11 11 11 11 10 10 10 10 10
17 17 17 16 15 15 15 15 14 14 14 13 13 12 12 12 12 11 11 11 11 11 11 11 12 12 12 13 13 13 12 11 11 11 10 11 11 10 10 10 10 10 10
16 16 16 16 15 15 15 14 14 14 13 13 12 12 12 11 11 11 11 11 11 11 11 11 11 12 12 12 13 12 12 11 10 10 10 10 10 10 10 10 10 10 10
16 16 16 15 15 15 15 14 14 13 13 12 12 12 11 11 11 11 11 11 11 11 11 11 11 11 12 12 12 12 11 11 10 10 10 10 10 9 9 9 9 9 9
16 15 15 15 15 14 14 14 14 13 13 12 12 11 11 11 11 11 11 11 11 11 11 11 11 11 12 12 12 11 11 10 10 10 10 10 10 9 9 9 9 9 9
15 15 15 14 14 14 14 14 13 13 12 12 12 11 11 11 11 11 11 11 11 11 11 11 11 11 12 12 11 11 11 10 10 9 10 10 9 9 9 9 9 9 9
15 15 15 14 14 14 14 13 13 12 12 12 12 11 11 11 11 11 11 11 11 11 11 11 11 11 11 11 11 10 10 10 9 10 10 10 9 9 9 8 8 8 8
15 15 15 14 14 14 13 13 13 12 12 12 11 11 11 11 11 11 11 11 11 11 11 11 11 11 11 11 10 10 10 10 10 10 10 9 9 9 8 8 8 8 8
15 14 14 14 14 13 13 13 12 12 12 11 11 11 11 10 10 10 10 11 11 11 11 11 11 10 10 10 10 10 10 9 9 10 10 9 9 8 8 8 8 8 7
15 15 14 14 14 13 13 13 12 12 12 11 11 11 11 10 10 10 10 10 11 11 11 10 10 10 10 10 10 10 10 9 9 10 10 9 9 9 8 8 8 7 7
15 15 14 14 14 13 13 13 12 12 12 11 11 11 11 10 10 10 10 10 10 10 10 10 10 10 10 10 10 10 10 9 9 10 10 9 9 9 8 8 8 8 7
16 15 15 14 14 14 13 13 13 12 12 12 11 11 11 10 10 10 10 10 10 10 10 10 10 10 10 10 10 9 9 9 9 10 10 9 9 9 9 8 8 8 7
16 15 15 14 14 14 13 13 13 12 12 12 11 11 11 11 10 10 10 10 10 10 10 10 10 10 10 10 9 9 9 9 9 9 9 9 9 9 9 9 8 8 8
16 16 15 14 14 14 13 13 13 12 12 12 12 11 11 11 11 10 10 10 10 10 10 10 10 10 10 10 9 9 9 9 9 9 9 9 9 9 9 9 9 8 8
17 16 16 15 14 14 14 13 13 12 12 12 12 12 11 11 11 11 10 10 10 10 10 10 10 10 10 9 9 9 9 9 9 9 9 9 9 9 9 9 9 9 8
17 17 16 15 15 14 14 13 13 12 12 12 12 12 12 11 11 11 10 10 10 10 10 10 10 10 9 9 9 9 9 9 9 9 9 9 9 9 9 9 9 9 8
18 17 16 16 15 14 14 13 13 12 12 12 12 12 12 12 11 11 10 10 10 10 10 10 10 9 9 9 9 9 9 9 9 9 9 9 9 9 9 9 9 8 8
18 17 16 16 15 14 14 13 13 13 13 12 12 12 12 12 11 11 11 10 10 10 10 10 10 9 9 9 9 9 9 9 9 9 9 9 9 9 9 9 8 8 8
18 17 16 16 16 15 15 15 15 14 13 13 12 12 12 12 12 11 11 11 10 10 10 10 10 9 9 9 9 9 9 9 9 9 9 9 9 9 9 8 8 8 8
18 17 17 16 16 16 15 14 13 13 12 12 12 12 12 12 12 11 11 11 10 10 10 10 10 9 9 9 9 9 8 8 9 9 9 9 9 9 8 8 8 8 7
19 18 17 16 16 16 15 14 14 13 13 14 14 13 13 12 12 11 11 11 10 10 10 10 10 9 9 9 9 9 9 9 8 8 8 8 8 8 8 8 8 7 7
19 18 17 16 16 15 15 15 14 14 14 14 13 13 13 12 12 11 11 11 10 10 10 10 10 9 9 9 9 9 9 8 8 8 8 8 8 8 8 7 7 7 7
19 18 17 16 16 15 15 14 14 14 14 13 13 13 12 12 12 11 11 11 11 10 10 10 10 9 9 9 9 9 9 8 8 8 8 7 7 7 7 7 7 7 6
Wind_Speed
13 19 24 22 21 20 19 18 18 17 17 17 17 18 18 17 17 17 17 18 18 18 18 18 18 18 18 18 18 18 18 17 17 18 19 19 19 19 19 19 17 16 18
17 22 25 23 22 20 19 19 18 17 17 17 17 17 17 17 17 17 16 17 17 17 17 17 17 17 17 18 17 17 16 14 14 14 16 18 18 18 18 18 17 15 16
20 23 24 24 22 21 20 19 18 18 17 17 17 17 17 17 16 16 16 16 16 17 17 17 17 16 17 17 16 15 14 12 11 12 14 15 16 17 17 16 16 16 16
20 22 22 24 23 21 21 20 19 18 17 17 17 17 16 16 16 16 16 16 16 16 16 16 15 15 16 16 15 14 13 12 13 14 15 16 15 15 15 16 16 16 16
19 21 23 25 23 22 21 20 19 18 17 17 16 16 16 15 15 15 15 15 15 15 15 15 15 15 15 14 14 12 11 12 12 14 15 16 15 15 15 16 15 16 16
18 21 24 24 23 23 21 20 19 18 18 17 16 16 15 15 15 15 14 14 14 14 14 14 14 14 14 13 13 11 11 13 13 15 16 16 14 14 15 15 15 15 16
17 20 23 24 24 23 21 20 19 18 18 17 16 16 15 15 15 14 14 13 13 13 13 13 13 13 13 12 12 11 11 11 11 13 15 15 13 14 14 14 15 15 16
17 18 22 24 23 22 21 20 19 19 18 17 16 16 15 15 14 13 13 12 12 12 12 12 12 12 11 11 10 8 9 10 9 12 15 14 13 13 14 14 15 15 16
17 17 17 20 21 22 21 20 20 19 18 17 17 16 15 14 13 13 12 11 11 11 11 11 11 10 10 9 7 6 7 8 8 10 13 12 12 12 13 14 14 14 15
15 16 15 17 19 19 19 20 19 19 18 17 17 16 15 14 13 12 11 11 11 10 10 9 9 8 8 6 4 3 5 6 9 14 13 11 11 11 12 13 13 13 14
15 15 15 15 16 18 18 19 19 19 18 18 17 17 15 13 13 12 12 11 10 9 9 8 7 6 6 4 1 1 5 4 11 13 11 10 10 10 11 12 12 12 12
16 16 15 15 15 16 17 17 16 16 17 16 16 15 13 12 13 13 13 11 10 9 8 7 5 5 4 4 3 1 3 6 10 11 10 10 9 9 10 10 10 11 11
15 15 15 15 15 14 12 14 13 14 15 15 17 16 13 12 12 14 12 10 9 8 7 7 6 5 4 3 1 3 6 7 9 11 10 9 9 8 9 9 9 9 10
15 14 14 14 13 13 13 11 11 10 11 10 15 17 12 8 8 10 9 11 11 9 7 6 6 4 4 3 3 5 5 6 8 10 9 9 8 7 7 8 8 8 9
14 15 15 15 14 12 11 10 10 9 10 12 13 14 13 8 5 7 7 9 9 9 7 4 3 5 3 3 4 4 4 5 7 9 9 8 7 6 6 6 6 7 7
16 16 15 15 14 12 10 9 8 9 12 13 12 13 14 12 8 6 5 6 6 7 7 4 3 4 3 3 2 3 3 4 5 7 8 8 6 5 4 5 5 5 6
18 17 15 15 15 14 12 10 8 9 11 9 12 15 14 14 11 7 5 5 6 8 7 4 4 4 3 2 1 2 3 3 3 4 6 7 6 5 3 3 3 4 4
18 18 17 15 15 14 12 10 8 9 10 9 13 14 15 14 14 9 5 5 8 8 5 3 3 2 2 2 1 1 1 2 2 3 4 5 6 6 4 2 1 1 3
19 19 18 16 16 15 13 9 8 9 9 9 12 13 14 15 15 10 6 6 9 6 3 3 3 2 2 2 1 1 1 1 2 2 3 4 5 6 5 4 2 1 2
17 18 19 17 15 14 12 9 7 7 8 8 9 11 15 14 15 11 7 8 9 5 4 4 4 3 2 2 1 0 1 2 2 2 3 4 5 5 5 5 5 4 4
16 18 19 18 17 15 13 12 12 10 9 8 7 12 15 15 15 11 6 7 6 6 6 6 4 4 3 2 1 1 2 3 3 3 3 3 4 6 6 6 6 6 5
18 19 20 20 19 17 14 12 10 9 7 7 6 9 14 14 15 12 8 7 7 6 7 6 5 4 3 4 3 1 1 2 3 3 3 3 3 5 6 7 7 7 7
17 19 19 21 19 18 15 11 9 8 7 7 9 9 10 13 14 13 10 8 7 7 7 6 6 6 4 4 4 4 2 3 2 2 4 4 4 3 4 7 8 8 8
16 17 18 20 19 18 17 15 16 14 12 11 11 9 9 11 12 13 12 10 8 7 7 7 7 5 6 4 3 3 3 3 2 2 3 4 5 5 5 5 7 8 9
16 16 17 18 19 18 18 17 17 12 10 8 9 11 11 10 11 12 12 10 9 7 8 8 7 6 5 5 4 3 2 2 2 3 3 3 3 4 5 5 5 7 9
15 15 16 17 18 19 20 18 18 16 13 13 12 13 12 9 9 12 11 10 9 8 8 8 7 8 6 6 4 4 4 3 4 4 4 4 4 4 4 4 4 6 9
Wind_Direction
138 147 151 147 143 139 133 128 122 118 114 110 106 103 100 97 95 92 88 86 84 83 82 80 78 77 76 75 73 73 72 72 72 71 68 64 60 57 53 50 51 48 48
139 146 150 147 144 140 134 129 125 122 118 113 109 106 102 99 97 94 91 88 85 83 82 81 79 77 77 76 75 73 73 72 71 68 70 67 60 57 54 50 49 48 46
138 144 149 148 145 142 136 131 128 125 121 117 113 110 106 102 99 97 93 90 87 85 83 82 80 79 77 76 75 73 70 63 53 53 65 67 57 53 53 49 48 46 44
138 145 149 148 145 142 137 133 131 128 124 121 117 113 109 105 102 100 96 92 90 88 86 84 83 81 78 77 75 72 65 51 41 52 61 59 52 50 51 48 46 44 42
139 145 147 148 146 143 139 136 134 131 128 125 121 117 113 110 107 103 99 96 93 91 89 86 84 82 80 77 74 68 55 38 41 57 62 61 47 47 50 47 43 42 41
139 141 147 149 147 145 142 140 138 135 133 129 125 122 119 115 111 107 103 100 98 95 93 89 85 83 80 77 72 62 45 34 51 57 58 57 43 44 46 44 43 42 39
138 139 149 150 148 147 145 143 141 139 136 132 129 127 123 119 115 112 108 104 100 97 95 91 87 84 80 75 69 57 36 26 59 64 63 55 43 45 45 45 43 42 40
137 141 149 152 150 149 147 145 144 143 140 136 133 130 126 123 121 118 112 108 103 99 96 92 89 85 81 74 66 49 28 26 40 64 68 52 43 45 46 46 44 43 42
139 142 147 152 151 151 149 148 148 146 142 139 136 133 130 129 127 122 116 113 109 105 100 95 91 87 81 77 67 43 17 8 30 59 67 50 45 46 47 47 44 42 42
142 146 151 154 153 152 150 150 149 147 144 142 138 135 134 134 132 128 124 120 115 110 106 100 97 94 91 88 77 23 350 352 57 67 64 52 47 47 49 47 44 44 43
151 152 156 157 156 155 154 153 149 148 146 143 140 140 141 144 142 136 127 126 123 119 115 112 112 115 114 116 118 329 327 44 81 78 65 56 48 48 50 49 46 44 45
161 160 161 160 159 157 157 154 154 153 151 151 149 153 162 160 151 138 136 136 137 136 134 138 149 157 164 169 197 267 353 60 82 86 71 59 50 49 52 51 47 46 46
165 163 163 162 159 157 153 160 162 159 162 167 162 171 172 149 139 138 145 147 154 159 167 172 185 204 146 122 137 87 54 51 74 84 78 65 55 51 51 50 50 50 48
168 167 162 160 159 157 156 164 162 159 170 170 169 175 167 151 153 155 157 167 174 177 171 180 191 149 117 113 82 77 69 63 79 93 86 74 61 54 50 48 51 50 47
171 169 165 163 162 159 160 164 166 162 167 165 169 177 163 151 159 159 164 165 171 164 165 191 170 135 128 106 89 84 76 78 89 97 102 91 75 61 54 49 48 45 39
175 173 167 166 165 161 164 164 165 162 165 165 168 174 164 159 164 163 159 156 159 159 167 172 141 127 117 101 88 88 83 84 99 113 122 114 99 82 65 50 42 40 33
175 173 171 170 167 166 167 168 166 160 163 161 166 173 170 165 166 168 154 151 159 162 163 158 124 108 105 107 119 107 96 90 95 117 131 136 134 120 103 71 48 32 22
172 173 173 174 172 169 169 170 164 165 164 164 166 173 175 171 169 168 153 156 162 161 155 136 124 121 136 150 124 90 101 121 133 131 134 145 149 146 145 136 69 3 354
174 173 174 174 175 172 169 170 166 166 166 167 167 172 177 176 171 165 159 162 162 154 151 150 144 149 153 139 130 145 189 173 166 160 163 161 155 154 161 175 199 242 295
174 172 173 174 175 170 167 170 169 168 168 169 169 171 175 177 173 167 163 165 161 152 159 158 161 157 148 150 147 211 236 210 182 183 189 173 171 180 185 192 201 217 251
172 171 172 175 177 172 175 179 180 182 177 175 171 172 174 177 174 170 167 167 162 164 171 172 164 159 169 154 110 300 281 235 199 197 192 183 192 198 206 214 214 215 228
175 174 174 177 179 179 181 182 180 174 175 174 169 175 178 178 176 177 169 168 166 168 175 180 161 156 174 161 156 155 297 308 283 228 202 203 209 206 212 223 225 225 225
178 178 179 180 181 181 175 172 169 166 169 178 183 185 183 180 178 177 175 169 171 171 180 184 170 167 180 198 189 168 176 230 276 261 229 217 219 219 222 224 227 231 231
181 179 179 179 179 181 176 178 178 182 186 189 184 182 181 182 181 179 178 177 176 175 178 183 177 175 171 189 211 211 197 176 170 270 278 243 230 229 229 226 226 226 230
177 176 178 177 179 179 180 182 183 188 187 176 173 177 184 188 187 182 182 181 179 179 180 180 177 181 179 181 184 187 215 235 205 194 251 270 262 246 234 227 222 225 228
175 173 175 177 180 179 182 184 187 188 183 177 179 182 186 187 190 187 185 183 183 180 182 182 182 183 186 187 188 181 174 186 209 204 229 250 255 258 243 234 224 224 228
Height
1493 1497 1500 1504 1507 1510 1513 1515 1517 1519 1521 1522 1524 1525 1527 1528 1529 1531 1532 1533 1534 1535 1535 1536 1536 1536 1537 1537 1537 1538 1538 1539 1539 1539 1539 1538 1538 1538 1537 1537 1536 1536 1536
1490 1495 1499 1503 1507 1510 1512 1515 1517 1519 1521 1523 1524 1526 1527 1528 1530 1531 1532 1533 1534 1535 1536 1536 1537 1537 1537 1538 1538 1539 1540 1540 1540 1540 1540 1539 1539 1539 1538 1538 1537 1537 1537
1490 1494 1499 1503 1506 1510 1512 1515 1517 1519 1521 1523 1525 1526 1528 1529 1530 1532 1533 1534 1535 1536 1536 1537 1537 1538 1538 1539 1539 1540 1541 1541 1542 1542 1542 1541 1540 1540 1539 1539 1538 1538 1537
1490 1494 1498 1502 1506 1509 1512 1515 1517 1519 1522 1523 1525 1527 1528 1530 1531 1533 1534 1534 1535 1536 1537 1537 1538 1538 1539 1540 1540 1541 1542 1543 1543 1543 1542 1542 1541 1541 1540 1540 1540 1539 1538
1491 1494 1498 1502 1506 1509 1512 1515 1517 1520 1522 1524 1526 1527 1529 1530 1532 1533 1534 1535 1536 1537 1537 1538 1539 1539 1540 1541 1541 1542 1543 1543 1544 1544 1543 1542 1542 1542 1542 1541 1540 1540 1539
1491 1494 1498 1502 1506 1509 1512 1515 1517 1520 1522 1524 1526 1528 1529 1531 1532 1533 1534 1535 1537 1537 1538 1539 1540 1540 1541 1542 1542 1543 1544 1544 1544 1544 1544 1543 1543 1543 1543 1542 1541 1540 1540
1490 1494 1498 1502 1506 1509 1512 1515 1518 1520 1522 1524 1526 1528 1530 1531 1533 1534 1535 1536 1537 1538 1539 1540 1541 1541 1542 1543 1543 1544 1544 1545 1545 1545 1544 1544 1544 1544 1543 1542 1542 1541 1540
1490 1493 1498 1502 1505 1509 1512 1515 1517 1520 1522 1525 1527 1528 1530 1532 1533 1534 1535 1537 1538 1539 1540 1541 1542 1543 1543 1544 1544 1545 1545 1545 1546 1546 1545 1545 1545 1545 1544 1543 1542 1541 1540
1490 1493 1497 1501 1505 1508 1511 1514 1517 1520 1522 1525 1527 1529 1530 1532 1533 1535 1536 1537 1539 1540 1541 1542 1543 1543 1544 1545 1545 1546 1546 1546 1546 1546 1546 1545 1545 1545 1545 1544 1543 1542 1541
1491 1493 1497 1501 1504 1507 1511 1514 1517 1520 1522 1524 1527 1528 1530 1532 1534 1535 1536 1538 1539 1540 1541 1542 1543 1544 1545 1545 1546 1547 1547 1547 1547 1547 1546 1546 1546 1546 1545 1544 1543 1542 1541
1490 1493 1496 1499 1503 1506 1510 1513 1516 1519 1522 1524 1526 1528 1530 1532 1534 1535 1537 1538 1539 1541 1542 1543 1544 1545 1545 1546 1547 1547 1547 1548 1547 1547 1547 1546 1546 1546 1545 1544 1543 1543 1542
1487 1491 1495 1498 1502 1505 1509 1512 1515 1518 1521 1523 1525 1528 1530 1532 1534 1535 1537 1538 1540 1541 1542 1543 1544 1545 1546 1546 1548 1548 1548 1549 1548 1547 1547 1547 1546 1546 1545 1545 1544 1543 1542
1485 1489 1493 1497 1500 1504 1507 1510 1513 1516 1519 1522 1525 1527 1529 1532 1534 1535 1537 1538 1540 1541 1542 1544 1545 1545 1546 1547 1548 1548 1549 1549 1548 1547 1547 1547 1547 1546 1546 1545 1544 1543 1542
1483 1487 1491 1495 1499 1502 1505 1509 1512 1515 1518 1521 1524 1526 1529 1531 1533 1535 1536 1538 1539 1541 1542 1544 1545 1546 1547 1548 1548 1548 1549 1549 1548 1548 1547 1547 1546 1546 1545 1545 1544 1543 1542
1480 1484 1488 1492 1496 1500 1503 1507 1510 1513 1516 1519 1522 1525 1528 1530 1532 1534 1536 1537 1539 1541 1542 1544 1546 1546 1547 1548 1548 1548 1548 1548 1548 1547 1547 1547 1546 1546 1545 1545 1544 1543 1542
1476 1481 1485 1489 1493 1497 1501 1505 1508 1512 1515 1518 1520 1523 1526 1528 1531 1533 1535 1537 1539 1540 1542 1543 1545 1546 1546 1547 1547 1548 1548 1548 1547 1547 1546 1546 1546 1545 1545 1544 1543 1542 1541
1472 1477 1481 1486 1490 1494 1498 1502 1506 1510 1513 1516 1518 1521 1524 1527 1529 1531 1534 1535 1537 1539 1541 1542 1544 1545 1545 1546 1547 1547 1547 1547 1547 1546 1546 1545 1545 1544 1544 1543 1543 1542 1540
1469 1473 1478 1483 1487 1491 1495 1500 1504 1507 1510 1513 1516 1519 1522 1524 1527 1529 1532 1533 1536 1538 1539 1541 1542 1543 1544 1545 1545 1546 1546 1546 1546 1546 1545 1544 1544 1543 1543 1542 1541 1540 1539
1464 1468 1473 1478 1483 1487 1492 1497 1501 1504 1508 1511 1513 1516 1519 1522 1524 1527 1529 1531 1533 1535 1537 1539 1540 1541 1543 1543 1544 1544 1545 1545 1544 1544 1544 1543 1543 1542 1541 1541 1540 1539 1538
1460 1464 1468 1473 1478 1483 1488 1493 1497 1501 1504 1507 1510 1513 1516 1519 1522 1524 1527 1529 1531 1533 1535 1537 1538 1540 1541 1542 1542 1543 1543 1543 1543 1542 1542 1542 1541 1541 1540 1539 1538 1537 1536
1455 1459 1463 1468 1473 1478 1482 1486 1490 1495 1499 1503 1506 1509 1512 1515 1518 1521 1524 1526 1528 1530 1532 1534 1536 1537 1539 1540 1540 1540 1541 1541 1541 1540 1540 1540 1539 1539 1538 1537 1536 1535 1533
1448 1453 1457 1461 1466 1471 1475 1480 1485 1490 1494 1499 1503 1506 1509 1512 1515 1518 1520 1523 1525 1527 1530 1532 1533 1535 1536 1537 1538 1538 1538 1539 1538 1538 1538 1538 1537 1537 1536 1535 1533 1532 1531
1441 1446 1450 1455 1459 1465 1470 1476 1482 1487 1491 1495 1497 1501 1504 1507 1511 1514 1517 1519 1522 1524 1526 1528 1530 1531 1533 1535 1536 1537 1537 1536 1536 1536 1535 1535 1535 1534 1533 1532 1531 1529 1528
1434 1439 1444 1449 1453 1459 1464 1469 1473 1477 1481 1484 1490 1494 1499 1503 1506 1510 1513 1515 1518 1520 1523 1525 1527 1528 1530 1531 1533 1533 1535 1534 1534 1532 1532 1532 1532 1531 1530 1529 1527 1526 1524
1427 1433 1438 1443 1448 1453 1458 1462 1466 1471 1476 1481 1486 1490 1494 1498 1502 1505 1508 1511 1514 1516 1519 1521 1523 1525 1526 1528 1529 1530 1531 1531 1531 1530 1528 1528 1528 1527 1526 1525 1524 1522 1521
1420 1425 1431 1436 1441 1446 1451 1456 1460 1465 1470 1475 1479 1483 1488 1492 1496 1499 1503 1506 1509 1512 1514 1517 1519 1521 1523 1524 1525 1526 1527 1527 1527 1527 1525 1524 1523 1523 1522 1521 1520 1518 1516